Satellite-Ground Cal/Val Region Overpasses Predictions

Prediction of Satellite NPP Overpassing Cal/Val Region: PacNW

Region Location: (Latitude: 10.00, Longitude: 139.50) to (Latitude: 22.70, Longitude: 165.60).

Table of predicted overpasses for the next 14.0 days since TLE Epoch: 8/23/2015
Interval Starting Time Starting Location Ending Time Ending Location
1 08/24/2015 02:23:58 ( 10.05, 164.64) 08/24/2015 02:27:33 ( 22.67, 161.64)
2 08/24/2015 14:55:51 ( 22.66, 161.85) 08/24/2015 14:59:26 ( 10.03, 158.86)
3 08/25/2015 03:46:25 ( 10.03, 144.03) 08/25/2015 03:50:00 ( 22.65, 141.03)
4 08/25/2015 14:37:58 ( 18.52, 165.60) 08/25/2015 14:40:23 ( 10.01, 163.61)
5 08/25/2015 16:18:17 ( 22.68, 141.24) 08/25/2015 16:20:19 ( 15.52, 139.51)
6 08/26/2015 03:27:22 ( 10.05, 148.78) 08/26/2015 03:30:57 ( 22.68, 145.78)
7 08/26/2015 15:59:15 ( 22.65, 146.00) 08/26/2015 16:02:50 ( 10.03, 143.00)
8 08/27/2015 03:08:19 ( 10.02, 153.54) 08/27/2015 03:11:54 ( 22.65, 150.55)
9 08/27/2015 15:40:11 ( 22.68, 150.76) 08/27/2015 15:43:46 ( 10.06, 147.77)
10 08/28/2015 02:49:16 ( 10.05, 158.30) 08/28/2015 02:52:51 ( 22.67, 155.30)
11 08/28/2015 15:21:09 ( 22.65, 155.51) 08/28/2015 15:24:44 ( 10.03, 152.52)
12 08/29/2015 02:30:13 ( 10.02, 163.06) 08/29/2015 02:33:48 ( 22.65, 160.07)
13 08/29/2015 15:02:06 ( 22.68, 160.28) 08/29/2015 15:05:41 ( 10.06, 157.28)
14 08/30/2015 02:13:51 ( 19.51, 165.60) 08/30/2015 02:14:45 ( 22.68, 164.82)
15 08/30/2015 03:52:39 ( 10.00, 142.45) 08/30/2015 03:56:11 ( 22.45, 139.50)
16 08/30/2015 14:43:03 ( 22.65, 165.03) 08/30/2015 14:46:38 ( 10.03, 162.04)
17 08/30/2015 16:24:32 ( 22.70, 139.67) 08/30/2015 16:24:43 ( 22.05, 139.51)
18 08/31/2015 03:33:37 ( 10.04, 147.20) 08/31/2015 03:37:12 ( 22.66, 144.21)
19 08/31/2015 16:05:30 ( 22.66, 144.42) 08/31/2015 16:09:05 ( 10.04, 141.43)
20 09/01/2015 03:14:33 ( 10.01, 151.97) 09/01/2015 03:18:09 ( 22.69, 148.96)
21 09/01/2015 15:46:26 ( 22.69, 149.19) 09/01/2015 15:50:02 ( 10.01, 146.18)
22 09/02/2015 02:55:31 ( 10.04, 156.72) 09/02/2015 02:59:06 ( 22.66, 153.73)
23 09/02/2015 15:27:24 ( 22.66, 153.94) 09/02/2015 15:30:59 ( 10.04, 150.94)
24 09/03/2015 02:36:27 ( 10.01, 161.49) 09/03/2015 02:40:03 ( 22.69, 158.48)
25 09/03/2015 15:08:20 ( 22.69, 158.70) 09/03/2015 15:11:56 ( 10.01, 155.70)
26 09/04/2015 02:18:13 ( 12.86, 165.59) 09/04/2015 02:21:00 ( 22.67, 163.24)
27 09/04/2015 03:58:55 ( 10.05, 140.86) 09/04/2015 04:00:35 ( 15.93, 139.50)
28 09/04/2015 14:49:18 ( 22.66, 163.46) 09/04/2015 14:52:53 ( 10.03, 160.46)
29 09/05/2015 03:39:51 ( 10.03, 145.63) 09/05/2015 03:43:26 ( 22.65, 142.63)
30 09/05/2015 14:33:22 ( 11.65, 165.59) 09/05/2015 14:33:50 ( 10.00, 165.21)
31 09/05/2015 16:11:44 ( 22.67, 142.85) 09/05/2015 16:15:19 ( 10.05, 139.85)
32 09/06/2015 03:20:48 ( 10.00, 150.39) 09/06/2015 03:24:24 ( 22.68, 147.38)


NCC Satellite Cal/Val Overpasses Prediction Service
